Location: Unspecified
(0.0000°N, 0.0000°E)
Time: 07:10:39
(UTC+00:00)

BEESAT - Visible Passes

Search period start: 18 September 2021 00:00
Search period end: 28 September 2021 00:00
Orbit: 700 x 708 km, 98.6° (Epoch: 17 September)

Date Brightness Start Highest point End Pass type
(mag) Time Alt. Az. Time Alt. Az. Time Alt. Az.
18 Sep ? 18:35:03 10° NE 18:39:12 30° ESE 18:43:19 10° SSE visible
18 Sep ? 20:14:23 10° NW 20:16:39 13° WNW 20:18:54 10° WSW visible
19 Sep ? 19:17:35 10° N 19:22:17 71° WNW 19:27:01 10° SSW visible
20 Sep ? 18:24:21 10° NE 18:27:56 21° ESE 18:31:31 10° SSE visible
20 Sep ? 20:02:04 10° NNW 20:05:23 19° WNW 20:08:43 10° WSW visible
21 Sep ? 19:06:18 10° NNE 19:11:02 80° ESE 19:15:46 10° S visible
22 Sep ? 18:13:59 10° ENE 18:16:41 15° ESE 18:19:24 10° SE visible
22 Sep ? 19:50:10 10° NNW 19:54:07 27° WNW 19:58:06 10° SW visible
23 Sep ? 18:55:08 10° NNE 18:59:45 55° ESE 19:04:24 10° S visible
24 Sep ? 19:38:30 10° N 19:42:51 38° WNW 19:47:15 10° SW visible
25 Sep ? 18:44:07 10° NE 18:48:30 38° ESE 18:52:54 10° S visible
25 Sep ? 20:25:29 10° WNW 20:25:57 10° WNW 20:26:24 10° W visible
26 Sep ? 19:26:58 10° N 19:31:36 55° WNW 19:36:14 10° SSW visible
27 Sep ? 18:33:15 10° NE 18:37:14 27° ESE 18:41:14 10° SSE visible
27 Sep ? 20:12:01 10° NW 20:14:41 15° WNW 20:17:21 10° WSW visible
